Overview Statistics Trail Chart Weather Telemetry Raw packets
 

This is the latest recevied weather packets stored in our database for station/object W0WC. If no packets are shown the sender has not sent any weather packets the latest 10 day(s).

<< 42 43 44 45 46 47 48 >>
Time Temp. Humidity Pressure Rain* Wind** Luminosity Snow
1788400823 33.33° C 41% 1014 hPa 0 mm - 0 W/m² -
1788400520 33.33° C 41% 1013.9 hPa 0 mm - 0 W/m² -
1788400215 33.33° C 40% 1014 hPa 0 mm - 0 W/m² -
1788399914 33.89° C 40% 1013.8 hPa 0 mm - 0 W/m² -
1788399609 33.89° C 40% 1013.8 hPa 0 mm - 0 W/m² -
1788399308 33.89° C 40% 1013.6 hPa 0 mm - 0 W/m² -
1788399008 33.89° C 40% 1013.6 hPa 0 mm - 0 W/m² -
1788398708 33.89° C 40% 1013.6 hPa 0 mm - 0 W/m² -
1788398406 33.89° C 39% 1013.7 hPa 0 mm - 0 W/m² -
1788398101 33.89° C 39% 1013.5 hPa 0 mm - 0 W/m² -
1788397797 34.44° C 38% 1013.4 hPa 0 mm - 0 W/m² -
1788397497 34.44° C 38% 1013.4 hPa 0 mm - 0 W/m² -
1788397194 34.44° C 38% 1013.2 hPa 0 mm - 0 W/m² -
1788396890 35° C 37% 1013.5 hPa 0 mm - 1 W/m² -
1788396586 35° C 37% 1013.3 hPa 0 mm - 2 W/m² -
1788396280 35° C 36% 1013.4 hPa 0 mm - 4 W/m² -
1788395976 35.56° C 36% 1013.6 hPa 0 mm - 7 W/m² -
1788395676 35.56° C 36% 1013.5 hPa 0 mm - 10 W/m² -
1788395372 35.56° C 35% 1013.4 hPa 0 mm - 13 W/m² -
1788395066 36.11° C 35% 1013.3 hPa 0 mm - 17 W/m² -
1788394761 36.11° C 35% 1013.5 hPa 0 mm - 21 W/m² -
1788394461 36.11° C 34% 1013.4 hPa 0 mm - 25 W/m² -
1788394160 36.11° C 34% 1013.4 hPa 0 mm - 29 W/m² -
1788393856 36.67° C 34% 1013.3 hPa 0 mm - 30 W/m² -
1788393554 36.67° C 33% 1013.4 hPa 0 mm - 38 W/m² -

* Rain latest hour (hover to see other rain measurements)
** Current wind speed in m/s (hover to see current wind gust speed)